EW4925 Weather Reports


time (UTC)temp
C
wind
direction
speed
KPH
gust
KPH
rain 1hr
cm
rain 24hr
cm
rain mn
cm
humidity
%
barometer
mb
20260508203208 22 298 19.3 38.6 0.00 0.00 0.00 21
20260508201707 22 308 19.3 41.8 0.00 0.00 0.00 22
20260508200207 22 348 16.1 32.2 0.00 0.00 0.00 23
20260508194706 21 323 25.7 46.7 0.00 0.00 0.00 21
20260508193209 21 346 20.9 40.2 0.00 0.00 0.00 22
20260508191701 21 315 25.7 45.1 0.00 0.00 0.00 21
20260508190934 20 314 25.7 49.9 0.00 0.00 0.00 21
20260508184701 20 354 17.7 30.6 0.00 0.00 0.00 23
20260508183201 20 333 17.7 32.2 0.00 0.00 0.00 23
20260508181701 20 319 22.5 40.2 0.00 0.00 0.00 23
20260508180931 20 292 17.7 37.0 0.00 0.00 0.00 23
20260508174658 20 301 19.3 32.2 0.00 0.00 0.00 23
20260508173159 19 295 19.3 30.6 0.00 0.00 0.00 24
20260508171659 18 261 17.7 37.0 0.00 0.00 0.00 25
20260508170159 18 309 17.7 30.6 0.00 0.00 0.00 26
20260508165429 18 344 14.5 29.0 0.00 0.00 0.00 26
20260508163159 17 313 16.1 27.4 0.00 0.00 0.00 26
20260508161659 17 308 14.5 24.1 0.00 0.00 0.00 27
20260508160159 16 253 6.4 16.1 0.00 0.00 0.00 30
20260508154659 15 225 8.0 16.1 0.00 0.00 0.00 33
20260508153200 15 190 6.4 17.7 0.00 0.00 0.00 32
20260508152430 15 230 4.8 11.3 0.00 0.00 0.00 32
20260508150930 15 161 3.2 12.9 0.00 0.00 0.00 34
20260508145430 14 107 3.2 8.0 0.00 0.00 0.00 36
20260508143929 13 179 3.2 4.8 0.00 0.00 0.00 34
20260508141659 13 179 3.2 8.0 0.00 0.00 0.00 36
20260508140158 12 179 3.2 9.7 0.00 0.00 0.00 42
20260508134700 11 179 1.6 4.8 0.00 0.00 0.00 41
20260508133930 11 171 3.2 8.0 0.00 0.00 0.00 41
20260508131704 11 155 1.6 6.4 0.00 0.00 0.00 40
20260508131659 11 188 3.2 8.0 0.00 0.00 0.00 40
20260508124700 11 136 3.2 4.8 0.00 0.00 0.00 40
20260508123159 11 136 0.0 3.2 0.00 0.00 0.00 40
20260508121658 11 136 4.8 6.4 0.00 0.00 0.00 41
20260508120153 11 136 3.2 6.4 0.00 0.00 0.00 42
20260508114653 11 136 6.4 11.3 0.00 0.00 0.00 42
20260508113153 11 164 6.4 11.3 0.00 0.00 0.00 41
20260508112419 11 167 3.2 11.3 0.00 0.00 0.00 39
20260508110150 12 167 6.4 11.3 0.00 0.00 0.00 39
20260508105419 12 199 4.8 12.9 0.00 0.00 0.00 38
20260508103914 12 196 6.4 12.9 0.00 0.00 0.00 38
20260508101639 12 186 4.8 11.3 0.00 0.00 0.00 38
20260508100140 12 186 6.4 11.3 0.00 0.00 0.00 39
20260508095413 11 192 6.4 12.9 0.00 0.00 0.00 41
20260508093141 11 169 11.3 17.7 0.00 0.00 0.00 40
20260508091635 11 171 14.5 17.7 0.00 0.00 0.00 40
20260508090906 12 159 12.9 16.1 0.00 0.00 0.00 39
20260508085404 12 175 16.1 19.3 0.00 0.00 0.00 39
20260508083134 12 153 16.1 20.9 0.00 0.00 0.00 39
20260508081634 12 159 12.9 17.7 0.00 0.00 0.00 38
20260508080133 13 161 8.0 14.5 0.00 0.00 0.00 37
20260508074629 12 157 14.5 17.7 0.00 0.00 0.00 37
20260508073129 12 144 14.5 17.7 0.00 0.00 0.00 38
20260508071635 12 153 12.9 17.7 0.00 0.00 0.00 38
20260508071631 12 142 14.5 17.7 0.00 0.00 0.00 39
20260508064631 13 169 9.7 16.1 0.00 0.00 0.00 37
20260508063129 13 163 11.3 16.1 0.00 0.00 0.00 36
20260508061628 13 159 9.7 14.5 0.00 0.00 0.00 36
20260508060128 13 150 0.0 0.0 0.00 0.00 0.00 35
20260508054628 13 150 3.2 14.5 0.00 0.00 0.00 36
20260508053128 13 174 3.2 11.3 0.00 0.00 0.00 35
20260508052355 13 171 3.2 14.5 0.00 0.00 0.00 35
20260508050124 13 156 0.0 0.0 0.00 0.00 0.00 34
20260508044623 14 242 0.0 0.0 0.00 0.00 0.00 34
20260508043124 14 199 0.0 1.6 0.00 0.00 0.00 34
20260508041623 15 274 4.8 11.3 0.00 0.00 0.00 33
20260508040125 14 209 0.0 1.6 0.00 0.00 0.00 33
20260508034624 13 120 0.0 0.0 0.00 0.00 0.00 34
20260508033125 13 346 0.0 4.8 0.00 0.00 0.00 34
20260508031625 14 326 1.6 11.3 0.00 0.00 0.00 33
20260508030124 15 326 0.0 11.3 0.00 0.00 0.00 32
20260508024624 15 296 0.0 1.6 0.00 0.00 0.00 32
20260508023125 16 326 0.0 0.0 0.00 0.00 0.00 29
20260508021623 16 326 1.6 14.5 0.00 0.00 0.00 30
20260508020852 17 342 0.0 0.0 0.00 0.00 0.00 28
20260508014621 17 328 4.8 20.9 0.00 0.00 0.00 29
20260508013122 18 310 16.1 27.4 0.00 0.00 0.00 26
20260508012355 19 296 14.5 29.0 0.00 0.00 0.00 25
20260508010853 18 303 11.3 25.7 0.00 0.00 0.00 25
20260508004620 20 319 14.5 32.2 0.00 0.00 0.00 24
20260508003117 21 276 20.9 32.2 0.00 0.00 0.00 23
20260508001617 21 349 14.5 35.4 0.00 0.00 0.00 24
20260508000116 20 309 20.9 37.0 0.00 0.00 0.00 25
20260507235346 21 313 8.0 24.1 0.00 0.00 0.00 23
20260507233115 21 283 16.1 35.4 0.00 0.00 0.00 23
20260507231609 21 316 12.9 29.0 0.00 0.00 0.00 25
20260507230110 20 316 17.7 33.8 0.00 0.00 0.00 25
20260507224610 21 289 20.9 43.5 0.00 0.00 0.00 23
20260507223109 22 289 24.1 40.2 0.00 0.00 0.00 22
20260507221610 21 256 27.4 40.2 0.00 0.00 0.00 21
20260507220110 21 281 20.9 33.8 0.00 0.00 0.00 25
20260507214609 20 309 16.1 33.8 0.00 0.00 0.00 26
20260507213109 20 326 9.7 24.1 0.00 0.00 0.00 24
20260507211609 21 330 19.3 38.6 0.00 0.00 0.00 23
20260507210108 22 299 27.4 41.8 0.00 0.00 0.00 24
20260507210104 21 250 17.7 37.0 0.00 0.00 0.00 25